Location: Unspecified
(0.0000°N, 0.0000°E)
Time: 15:03:18
(UTC+00:00)

Altair - Pass Details

Date: 08 February 2023
Orbit: 1501 x 1682 km, 47.2° (Epoch: 19 March)

Event Time Altitude Azimuth Distance (km) Brightness Sun altitude
Exits shadow 03:48:26 54° 219° (SW) 1,946 7.8 -35.0°
Drops below altitude 10° 03:57:26 10° 155° (SSE) 3,843 10.0 -32.8°
Sets 04:00:37 0° 150° (SSE) 4,806 10.7 -32.1°
